• In Norway
  • List of Countries
  • For 7 days
  • Water Temperature
  • Satellite Maps
  • Weather Map
  • Weather Widgets
  • user-avatar
    Login

    Hourly Weather Shkoder

    Today, 25 September, Tuesday

    Time Temperature Precipitation Wind Pressure Humidity
    00:00 +13°C° 0 mm 6 mps 745 mmHg 63%
    01:00 +11°C° 0 mm 6 mps 746 mmHg 62%
    02:00 +10°C° 0 mm 6 mps 746 mmHg 63%
    03:00 +10°C° 0 mm 6 mps 746 mmHg 63%
    04:00 +9°C° 0 mm 6 mps 746 mmHg 64%
    05:00 +10°C° 0 mm 6 mps 747 mmHg 61%
    06:00 +10°C° 0 mm 6 mps 747 mmHg 58%
    07:00 +10°C° 0 mm 6 mps 747 mmHg 56%
    08:00 +13°C° 0 mm 6 mps 747 mmHg 49%
    09:00 +15°C° 0 mm 6 mps 747 mmHg 41%
    10:00 +17°C° 0 mm 6 mps 747 mmHg 34%
    11:00 +19°C° 0 mm 6 mps 747 mmHg 32%
    12:00 +20°C° 0 mm 6 mps 747 mmHg 30%
    13:00 +21°C° 0 mm 5 mps 747 mmHg 28%
    14:00 +20°C° 0 mm 5 mps 747 mmHg 30%
    15:00 +20°C° 0 mm 5 mps 747 mmHg 31%
    16:00 +19°C° 0 mm 5 mps 747 mmHg 33%
    17:00 +16°C° 0 mm 6 mps 747 mmHg 38%
    18:00 +14°C° 0 mm 6 mps 748 mmHg 43%
    19:00 +11°C° 0 mm 6 mps 749 mmHg 48%
    20:00 +10°C° 0 mm 6 mps 749 mmHg 50%
    21:00 +9°C° 0 mm 6 mps 749 mmHg 53%
    22:00 +9°C° 0 mm 6 mps 750 mmHg 55%
    23:00 +8°C° 0 mm 6 mps 750 mmHg 55%

    Tomorrow, 26 September, Wednesday

    Time Temperature Precipitation Wind Pressure Humidity
    00:00 +8°C° 0 mm 6 mps 750 mmHg 56%
    01:00 +7°C° 0 mm 6 mps 750 mmHg 56%
    02:00 +7°C° 0 mm 5 mps 750 mmHg 57%
    03:00 +7°C° 0 mm 5 mps 750 mmHg 58%
    04:00 +7°C° 0 mm 5 mps 751 mmHg 58%
    05:00 +7°C° 0 mm 6 mps 751 mmHg 54%
    06:00 +8°C° 0 mm 6 mps 751 mmHg 50%
    07:00 +9°C° 0 mm 6 mps 751 mmHg 47%
    08:00 +11°C° 0 mm 6 mps 751 mmHg 40%
    09:00 +14°C° 0 mm 6 mps 751 mmHg 33%
    10:00 +16°C° 0 mm 6 mps 751 mmHg 26%
    11:00 +17°C° 0 mm 5 mps 751 mmHg 25%
    12:00 +19°C° 0 mm 5 mps 750 mmHg 23%
    13:00 +19°C° 0 mm 5 mps 750 mmHg 21%
    14:00 +19°C° 0 mm 5 mps 750 mmHg 22%
    15:00 +19°C° 0 mm 4 mps 750 mmHg 24%
    16:00 +18°C° 0 mm 4 mps 750 mmHg 25%
    17:00 +15°C° 0 mm 4 mps 750 mmHg 30%
    18:00 +13°C° 0 mm 4 mps 751 mmHg 35%
    19:00 +10°C° 0 mm 4 mps 751 mmHg 41%
    20:00 +10°C° 0 mm 4 mps 751 mmHg 44%
    21:00 +8°C° 0 mm 4 mps 752 mmHg 47%
    22:00 +7°C° 0 mm 4 mps 752 mmHg 50%
    23:00 +7°C° 0 mm 4 mps 752 mmHg 51%

    Day after tomorrow, 27 September, Thursday

    Time Temperature Precipitation Wind Pressure Humidity
    00:00 +7°C° 0 mm 4 mps 752 mmHg 53%
    01:00 +7°C° 0 mm 4 mps 752 mmHg 54%
    02:00 +7°C° 0 mm 4 mps 751 mmHg 52%
    03:00 +6°C° 0 mm 4 mps 751 mmHg 51%
    04:00 +6°C° 0 mm 4 mps 751 mmHg 50%
    05:00 +7°C° 0 mm 4 mps 750 mmHg 45%
    06:00 +10°C° 0 mm 4 mps 750 mmHg 41%
    07:00 +11°C° 0 mm 4 mps 750 mmHg 37%
    08:00 +13°C° 0 mm 3 mps 750 mmHg 31%
    09:00 +17°C° 0 mm 3 mps 749 mmHg 26%
    10:00 +19°C° 0 mm 3 mps 749 mmHg 20%
    11:00 +21°C° 0 mm 4 mps 748 mmHg 20%
    12:00 +22°C° 0 mm 4 mps 747 mmHg 19%
    13:00 +23°C° 0 mm 4 mps 747 mmHg 19%
    14:00 +22°C° 0 mm 4 mps 746 mmHg 21%
    15:00 +22°C° 0 mm 4 mps 746 mmHg 22%
    16:00 +22°C° 0 mm 4 mps 745 mmHg 24%
    17:00 +19°C° 0 mm 4 mps 745 mmHg 28%
    18:00 +17°C° 0 mm 4 mps 745 mmHg 32%
    19:00 +13°C° 0 mm 4 mps 746 mmHg 36%
    20:00 +13°C° 0 mm 4 mps 745 mmHg 37%
    21:00 +12°C° 0 mm 4 mps 745 mmHg 38%
    22:00 +12°C° 0 mm 4 mps 745 mmHg 39%
    23:00 +12°C° 0 mm 4 mps 745 mmHg 40%

    28 September, Friday

    Time Temperature Precipitation Wind Pressure Humidity
    00:00 +11°C° 0 mm 4 mps 745 mmHg 40%
    01:00 +11°C° 0 mm 4 mps 744 mmHg 41%
    02:00 +11°C° 0 mm 4 mps 744 mmHg 41%
    03:00 +11°C° 0 mm 4 mps 744 mmHg 42%
    04:00 +11°C° 0 mm 4 mps 744 mmHg 43%
    05:00 +12°C° 0 mm 4 mps 743 mmHg 43%
    06:00 +12°C° 0 mm 4 mps 743 mmHg 42%
    07:00 +13°C° 0 mm 4 mps 743 mmHg 41%
    08:00 +17°C° 0 mm 4 mps 743 mmHg 37%
    09:00 +19°C° 0 mm 3 mps 743 mmHg 33%
    10:00 +22°C° 0 mm 3 mps 742 mmHg 29%
    11:00 +24°C° 0 mm 3 mps 742 mmHg 27%
    12:00 +25°C° 0 mm 3 mps 741 mmHg 26%
    13:00 +26°C° 0 mm 3 mps 741 mmHg 24%
    14:00 +26°C° 0 mm 3 mps 741 mmHg 26%
    15:00 +25°C° 0 mm 3 mps 740 mmHg 29%
    16:00 +25°C° 0 mm 3 mps 740 mmHg 31%
    17:00 +21°C° 0 mm 3 mps 740 mmHg 38%
    18:00 +19°C° 0 mm 3 mps 740 mmHg 44%
    19:00 +16°C° 0 mm 3 mps 741 mmHg 51%
    20:00 +16°C° 0 mm 3 mps 741 mmHg 53%
    21:00 +14°C° 0 mm 3 mps 741 mmHg 55%
    22:00 +14°C° 0 mm 3 mps 741 mmHg 57%
    23:00 +14°C° 0 mm 3 mps 741 mmHg 60%

    29 September, Saturday

    Time Temperature Precipitation Wind Pressure Humidity
    00:00 +13°C° 0 mm 3 mps 741 mmHg 62%
    01:00 +13°C° 0 mm 3 mps 741 mmHg 65%
    02:00 +13°C° 0 mm 3 mps 740 mmHg 66%
    03:00 +14°C° 0 mm 2 mps 740 mmHg 67%
    04:00 +14°C° 0 mm 2 mps 740 mmHg 68%
    05:00 +15°C° 0 mm 2 mps 740 mmHg 64%
    06:00 +16°C° 0 mm 2 mps 740 mmHg 61%
    07:00 +17°C° 0 mm 2 mps 740 mmHg 57%
    08:00 +19°C° 0 mm 2 mps 740 mmHg 50%
    09:00 +22°C° 0 mm 1 mps 740 mmHg 42%
    10:00 +25°C° 0 mm 1 mps 740 mmHg 35%
    11:00 +26°C° 0 mm 1 mps 740 mmHg 33%
    12:00 +26°C° 0 mm 2 mps 740 mmHg 32%
    13:00 +27°C° 0 mm 2 mps 740 mmHg 30%
    14:00 +26°C° 0 mm 2 mps 740 mmHg 33%
    15:00 +26°C° 0 mm 2 mps 740 mmHg 36%
    16:00 +25°C° 0 mm 2 mps 740 mmHg 40%
    17:00 +23°C° 0 mm 2 mps 740 mmHg 47%
    18:00 +21°C° 0 mm 1 mps 740 mmHg 54%
    19:00 +19°C° 0 mm 1 mps 741 mmHg 62%
    20:00 +19°C° 0 mm 1 mps 741 mmHg 61%
    21:00 +17°C° 0 mm 2 mps 741 mmHg 60%
    22:00 +17°C° 0 mm 2 mps 742 mmHg 58%
    23:00 +17°C° 0.1 mm 2 mps 742 mmHg 59%

    30 September, Sunday

    Time Temperature Precipitation Wind Pressure Humidity
    00:00 +16°C° 0.1 mm 2 mps 742 mmHg 60%
    01:00 +16°C° 0.1 mm 2 mps 742 mmHg 61%
    02:00 +16°C° 0.1 mm 2 mps 742 mmHg 63%
    03:00 +15°C° 0.1 mm 2 mps 742 mmHg 66%
    04:00 +15°C° 0.1 mm 2 mps 742 mmHg 68%
    05:00 +16°C° 0.2 mm 2 mps 742 mmHg 67%
    06:00 +16°C° 0.2 mm 2 mps 742 mmHg 67%
    07:00 +17°C° 0.2 mm 2 mps 742 mmHg 66%
    08:00 +19°C° 0.1 mm 2 mps 742 mmHg 60%
    09:00 +21°C° 0.1 mm 2 mps 742 mmHg 53%
    10:00 +23°C° 0.1 mm 2 mps 742 mmHg 47%
    11:00 +24°C° 0 mm 2 mps 742 mmHg 43%
    12:00 +25°C° 0 mm 2 mps 741 mmHg 40%
    13:00 +26°C° 0 mm 2 mps 741 mmHg 37%
    14:00 +26°C° 0 mm 2 mps 741 mmHg 39%
    15:00 +25°C° 0 mm 2 mps 740 mmHg 41%
    16:00 +24°C° 0 mm 2 mps 740 mmHg 43%
    17:00 +22°C° 0 mm 1 mps 740 mmHg 50%
    18:00 +20°C° 0 mm 1 mps 741 mmHg 57%
    19:00 +16°C° 0 mm 0 mps 741 mmHg 63%
    20:00 +18°C° 0 mm 1 mps 741 mmHg 64%
    21:00 +16°C° 0 mm 1 mps 741 mmHg 65%
    22:00 +16°C° 0 mm 1 mps 741 mmHg 66%
    23:00 +16°C° 0 mm 1 mps 741 mmHg 66%
    Show more